Location: Newark
(43.0000°N, 1.6781°W)
Time: 10:29:18
(UTC+00:00)

Explorer 7 - Pass Details

Date: 19 April 2021
Orbit: 484 x 677 km, 50.3° (Epoch: 07 May)

Event Time Altitude Azimuth Distance (km) Brightness Sun altitude
Rises 03:06:00 0° 295° (WNW) 2,901 - -22.0°
Reaches altitude 10° 03:08:25 10° 287° (WNW) 2,021 - -21.6°
Maximum altitude 03:12:40 35° 222° (SW) 1,054 - -21.1°
Exits shadow 03:16:16 14° 161° (SSE) 1,823 9.2 -20.5°
Drops below altitude 10° 03:17:02 10° 157° (SSE) 2,085 9.6 -20.4°
Sets 03:19:34 0° 148° (SSE) 3,007 10.5 -20.1°
